Regional Weather Roundup
Issued by NWS

Home | Current Version | Previous Version | Graphics & Text | Print | Product List | Glossary On
Versions: 1 2 3 4 5 6 7 8 9 10 11 12 13 14 15 16 17 18 19 20 21 22 23 24 25 26 27 28 29 30 31 32 33 34 35 36 37 38 39 40 41 42 43 44 45 46 47 48 49 50
000
ASUS43 KBIS 210202
RWRND

NORTH DAKOTA REGIONAL WEATHER ROUNDUP
NATIONAL WEATHER SERVICE BISMARCK ND
800 PM CST MON FEB 20 2017

NOTE: "FAIR" INDICATES FEW OR NO CLOUDS BELOW 12,000 FEET WITH NO
SIGNIFICANT WEATHER AND/OR OBSTRUCTIONS TO VISIBILITY.


NDZ001>003-009>011-017-210300-
NORTHWEST NORTH DAKOTA

CITY           SKY/WX    TMP DP  RH WIND       PRES   REMARKS
WILLISTON      FAIR      34  27  75 CALM      29.67F
MINOT          FAIR      38  33  82 SW9       29.70R
MINOT AFB      CLEAR     35  31  85 W12       29.69R
$$

NDZ018>021-031>035-040>046-210300-
SOUTHWEST NORTH DAKOTA

CITY           SKY/WX    TMP DP  RH WIND       PRES   REMARKS
BISMARCK       FAIR      38  32  79 CALM      29.77R
DICKINSON      FAIR      35  25  66 S6        29.69F
GARRISON         N/A     34  30  85 CALM      29.72R
HETTINGER ARPT CLEAR     39  26  59 SE5       29.74F
$$

NDZ004>008-012>016-024-026-027-054-210300-
NORTHEAST NORTH DAKOTA

CITY           SKY/WX    TMP DP  RH WIND       PRES   REMARKS
GRAND FORKS    PTCLDY    34  30  85 W7        29.70R
GRND FRKS AFB  CLEAR     33  33  99 W7        29.70S
DEVILS LAKE    FAIR      32  32 100 SW3       29.71R FOG
$$

NDZ022-023-025-028>030-036>039-047>053-210300-
SOUTHEAST NORTH DAKOTA

CITY           SKY/WX    TMP DP  RH WIND       PRES   REMARKS
FARGO          CLEAR     35  33  92 W8        29.75R
JAMESTOWN      FAIR      37  33  85 SW5       29.74R
$$





USA.gov is the U.S. government's official web portal to all federal, state and local government web resources and services.